User: anonymous   Login
Location: Bonn
(50.7330°N, 7.1000°E)
Time: 21:08:51
(UTC+02:00)
Language:

Envisat - Orbit

View from above orbital plane
View from above orbital plane
View from above satellite
View from above satellite

Ground track
Ground track

The orbit data is extracted from the following two-line orbital elements,

1 27386U 02009A   21268.01722866  .00000052  00000-0  30656-4 0  9999
2 27386  98.1570 257.0254 0001211  85.8237 341.9809 14.38043385 25315
Epoch (UTC): 25 September 2021 00:24:48
Eccentricity: 0.0001211
inclination: 98.1570°
perigee height: 764 km
apogee height: 766 km
right ascension of ascending node: 257.0254°
argument of perigee: 85.8237°
revolutions per day: 14.38043385
mean anomaly at epoch: 341.9809°
orbit number at epoch: 2531

The dashed part of the orbit path shows where the satellite is in the earth's shadow,  

DLR